Location: Newark
(35.2161°N, 26.1013°E)
Time: 19:16:57
(UTC+00:00)

BEESAT 2 - Pass Details

Date: 26 January 2020
Orbit: 493 x 534 km, 64.9° (Epoch: 19 February)

Event Time Altitude Azimuth Distance (km) Brightness Sun altitude
Exits shadow 02:25:33 10° 59° (ENE) 1,778 ? -35.5°
Drops below altitude 10° 02:25:42 10° 61° (ENE) 1,791 ? -35.4°
Sets 02:29:36 0° 100° (E) 2,661 ? -34.6°
